Regional Weather Roundup
Issued by NWS

Home | Current Version | Previous Version | Graphics & Text | Print | Product List | Glossary On
Versions: 1 2 3 4 5 6 7 8 9 10 11 12 13 14 15 16 17 18 19 20 21 22 23 24 25 26 27
000
ASUS45 KBOI 201610
RWRID
WEATHER ROUNDUP FOR IDAHO
NATIONAL WEATHER SERVICE BOISE ID
1000 AM MDT SUN APR 20 2014

NOTE: "FAIR" INDICATES FEW OR NO CLOUDS BELOW 12000 FEET
WITH NO SIGNIFICANT WEATHER AND/OR OBSTRUCTIONS TO VISIBILITY

IDZ012-014-201700-
SOUTHWEST IDAHO


CITY           SKY/WX    TMP DP  RH WIND       PRES   REMARKS
BOISE          SUNNY     50  31  48 W10       30.28R
CALDWELL       SUNNY     50  30  46 NW10      30.32R
MOUNTAIN HOME  SUNNY     52  27  38 NW17G24   30.27R
$$

IDZ016-017-201700-
SOUTHCENTRAL IDAHO


CITY           SKY/WX    TMP DP  RH WIND       PRES   REMARKS
BURLEY         SUNNY     49  28  44 W21G36    30.21R
JEROME         SUNNY     48  29  47 SW17G29   30.24R
TWIN FALLS     SUNNY     51  27  39 SW20      30.26R
$$

IDZ019>023-201700-
SOUTHEAST IDAHO


CITY           SKY/WX    TMP DP  RH WIND       PRES   REMARKS
IDAHO FALLS    SUNNY     49  30  48 SW20      30.18R
POCATELLO      SUNNY     52  24  33 SW24G32   30.22R
REXBURG        SUNNY     48  27  44 SW16      30.16R
$$

IDZ006-010-011-018-031-032-201700-
CENTRAL IDAHO MOUNTAINS


CITY           SKY/WX    TMP DP  RH WIND       PRES   REMARKS
MCCALL         SUNNY     41  22  46 N5        30.23R
HAILEY         MOSUNNY   48  25  40 CALM      30.18R
STANLEY          N/A     41  19  41 CALM      30.23R
SALMON         SUNNY     48  23  37 N8        30.20S
CHALLIS        SUNNY     49  14  24 VRB5      30.19R
$$

IDZ002-004-006-007-026-201700-
NORTHERN IDAHO


CITY           SKY/WX    TMP DP  RH WIND       PRES   REMARKS
LEWISTON       SUNNY     52  28  39 VRB3      30.29S
LOWELL           N/A     47  40  76 CALM      30.33R
COEUR D`ALENE  CLOUDY    45  34  65 S13       30.27S
MULLAN PASS    CLOUDY    28  23  81 VRB5      30.19R WCI  23
$$



USA.gov is the U.S. government's official web portal to all federal, state and local government web resources and services.